Preview of NWS' New Version of Forecast
This preview is not operational and should not be used for support decisions.

Regional Weather Roundup (RWR)

Issued by National Weather Service (NWS)

                            
000
ASPQ40 PGUM 240610
RWRPQ 
WEATHER ROUNDUP FOR THE MARIANAS AND MICRONESIA
NATIONAL WEATHER SERVICE TIYAN GU
400 PM CHST SAT AUG 24 2019

GUZ001>004-240700-
MARIANA ISLANDS-
  
CITY           SKY/WX    TMP DP  RH WIND       PRES   REMARKS
GUAM AIRPORT   MOSUNNY   81  79  94 E8        29.76S                  
ANDERSEN AFB   PTSUNNY   81  77  89 S7        29.77S                  
ROTA AIRPORT   PTSUNNY   79  75  89 SE13      29.74R                  
TINIAN AP      CLOUDY    84  77  79 SE6       29.76S HX  94           
SAIPAN AP      MOSUNNY   84  77  79 SE13      29.77R HX  94           

$$

PMZ161-240700-
REPUBLIC OF PALAU-
  
CITY           SKY/WX    TMP DP  RH WIND       PRES   REMARKS
KOROR AP       NOT AVBL                                               
KOROR WSO      NOT AVBL                                               

$$

PMZ171>174-240700-
FEDERATED STATES OF MICRONESIA-
  
CITY           SKY/WX    TMP DP  RH WIND       PRES   REMARKS
YAP AIRPORT    CLOUDY    86  77  74 N8        29.74F HX  97           
CHUUK AP       PTSUNNY   81  79  94 SW12      29.80S                  
POHNPEI AP     CLOUDY    84  77  79 SW3       29.83R HX  94           
POHNPEI WSO    LGT RAIN  82  77  83 W3        29.86S HX  91           
KOSRAE AP      NOT AVBL                                               

$$

PMZ181-240700-
REPUBLIC OF THE MARSHALL ISLANDS-
  
CITY           SKY/WX    TMP DP  RH WIND       PRES   REMARKS
KWAJALEIN AP   MOSUNNY   84  77  79 NE8       29.83R HX  94           
MAJURO AP      NOT AVBL                                               
MAJURO WSO     MOSUNNY   86  77  74 E5        29.79R HX  97           

$$